Torna al catalogo

COSMOS 1275 DEB

AttivoPO
NORAD 42180·DEBRIS·🇷🇺 Russia

Lanciato Jun 4, 1981 da Plesetsk Cosmodrome

Loading…

Prossimi Passaggi (prossime 24 ore)

TLE

In scadenzaSource: Space-Track

Epoca: Sep 7, 2026, 06:03 UTC

1 42180U 81053SU  26250.25258424  .00062049  00000-0  38488-2 0  9993
2 42180  82.8475 238.1468 0012289 126.3584 291.3643 15.09383167641084

Traccia COSMOS 1275 DEB in tempo reale con AllMySat

Download on the App Store